Regional Weather Roundup
Issued by NWS

Home | Current Version | Previous Version | Text Only | Print | Product List | Glossary Off
Versions: 1 2 3 4 5 6 7 8 9 10 11 12 13 14 15 16 17 18 19 20 21 22 23 24 25 26 27

000
ASUS45 KGTF 040210
RWRMT
MONTANA HOURLY WEATHER ROUNDUP
NATIONAL WEATHER SERVICE GREAT FALLS MT
800 PM MDT SUN MAY 03 2015

NOTE: "FAIR" INDICATES FEW OR NO CLOUDS BELOW 12000 FEET WITH NO
SIGNIFICANT WEATHER AND/OR OBSTRUCTIONS TO VISIBILITY.

MTZ001>007-043-040300-
WEST OF THE DIVIDE

CITY           SKY/WX    TMP DP  RH WIND       PRES   REMARKS
KALISPELL      CLEAR     62  22  21 S3        29.90F
MISSOULA       CLEAR     63  19  18 N13G18    29.88S
BUTTE          MOCLDY    58  27  30 S12       29.94R
DEER LODGE       N/A     61  27  27 NW7       29.94S
EUREKA           N/A     63  23  22 CALM      29.91S
HAMILTON         N/A     63  27  25 N12       29.87R
LIBBY            N/A     64  21  19 W3        29.89S
$$

MTZ008-052>055-040300-
SOUTHWEST MONTANA

CITY           SKY/WX    TMP DP  RH WIND       PRES   REMARKS
BOZEMAN        MOCLDY    57  33  40 SE15      29.92S
DILLON         CLOUDY    59  28  30 E6        29.90R
$$

MTZ009-010-012-014-046-048-049-054-040300-
EAST SLOPES AND CENTRAL MONTANA

CITY           SKY/WX    TMP DP  RH WIND       PRES   REMARKS
CUT BANK       CLEAR     56  22  26 E8        29.95R
GREAT FALLS    CLEAR     59  21  23 NE15      29.93S
MALMSTROM AFB  CLEAR     57  26  30 NE9       29.94S
HELENA         PTCLDY    66  23  19 E7        29.89S
$$

MTZ011-013-016-021-045-047-050-051-040300-
NORTH CENTRAL MONTANA

CITY           SKY/WX    TMP DP  RH WIND       PRES   REMARKS
HAVRE          CLEAR     58  28  32 E14       29.98S
LEWISTOWN      MOCLDY    57  31  37 E16G23    29.98S
CHINOOK          N/A     57  27  30 E8        30.00S
FORT BENTON      N/A     61  28  29 NE7       29.95S
$$

MTZ017>020-022>042-056>058-061-062-040300-
EASTERN PLAINS

CITY           SKY/WX    TMP DP  RH WIND       PRES   REMARKS
BAKER          CLOUDY    53  34  48 NE7       30.06R
BILLINGS       MOCLDY    58  36  43 NE9       29.98S
GLASGOW        CLEAR     57  24  28 N7        30.04R
LIVINGSTON     PTCLDY    57  32  38 E17       29.95R
MILES CITY     CLOUDY    59  29  31 NE12      30.02R
SIDNEY         PTCLDY    55  27  33 NW3       30.06R
WOLF POINT     PTCLDY    58  28  32 NE7       30.05R
BIG TIMBER       N/A     55  34  44 E8        29.99R
FORSYTH          N/A     57  32  38 E6        30.01R
PLENTYWOOD       N/A     54  21  28 N7        30.06R
POPLAR           N/A     55  25  30 N6        30.06R
$$

REGIONAL REPORTS...DAKOTAS

CITY           SKY/WX    TMP DP  RH WIND       PRES   REMARKS
WILLISTON      PTCLDY    57  20  23 N10       30.06R
MINOT          CLEAR     51  25  36 NW7       30.03R
DICKINSON      MOCLDY    54  26  34 N5        30.04R
BEACH          FAIR      50  28  43 NE5       30.07R
CROSBY         FAIR      50  23  34 NW7       30.07R
WATFORD CITY   FAIR      54  23  30 N5        30.04R
BISMARCK       PTCLDY    58  21  24 NW7       30.04R
GRAND FORKS    PTCLDY    54  29  38 NW9       29.95R
FARGO          PTCLDY    59  22  24 NW10      29.94R
BUFFALO SD       N/A     53  36  52 S9        29.99R
RAPID CITY     PTCLDY    55  34  45 NE9       30.03S
$$

REGIONAL REPORTS...WYOMING/IDAHO/WASHINGTON

CITY           SKY/WX    TMP DP  RH WIND       PRES   REMARKS
GILLETTE       CLOUDY    58  37  45 E14       30.00S
SHERIDAN       MOCLDY    57  44  62 E6        30.00R
BUFFALO WY     MOCLDY    54  44  69 NW7       30.04R
CODY           CLOUDY    54  39  58 SW5       30.00S
YELLOWSTONE LA   N/A     39  36  89 CALM      30.11S
IDAHO FALLS    RAIN      56  45  66 N10       29.95R
SALMON         MOCLDY    64  32  29 SE5       29.83S
BOISE          CLEAR     76  26  15 NW8       29.78S
SPOKANE        CLEAR     67  21  17 N7        29.89S
$$

REGIONAL REPORTS...ALBERTA

CITY           SKY/WX    TMP DP  RH WIND       PRES   REMARKS
EDMONTON       PTCLDY    48  32  53 E14       30.00R
CALGARY        PTCLDY    54  21  28 S17       29.96S
LETHBRIDGE     MOCLDY    54  28  37 E10       29.96S
MEDICINE HAT   MOCLDY    54  27  35 NE10      30.02S
$$

REGIONAL REPORTS...SASKATCHEWAN

CITY           SKY/WX    TMP DP  RH WIND       PRES   REMARKS
SWIFT CURRENT  CLEAR     48  28  46 N12       30.05R
REGINA         PTCLDY    48  32  53 N3        30.07R
SASKATOON      PTCLDY    46  28  49 NW7       30.06R
$$



USA.gov is the U.S. government's official web portal to all federal, state and local government web resources and services.